When you browse on this site, cookies collect data to enhance your experience and personalize the content and advertising you see.
Visit our Privacy Policy to learn more. By continuing to use the site, you agree to this use of cookies and data.
  • In Czech Republic
  • List of Countries
  • For 7 days
  • Water Temperature
  • Weather Map
  • Weather Widgets
  • user-avatar
    Login

    Hourly Weather Novaya Slobodka

    Today, 20 February, Thursday

    Time Temperature Precipitation Wind Pressure Humidity
    00:00 -1°C° 0 mm 2 mps 747 mmHg 93%
    01:00 -1°C° 0 mm 2 mps 747 mmHg 93%
    02:00 -1°C° 0 mm 2 mps 748 mmHg 94%
    03:00 -1°C° 0 mm 2 mps 748 mmHg 93%
    04:00 -1°C° 0 mm 2 mps 748 mmHg 93%
    05:00 -1°C° 0 mm 2 mps 748 mmHg 93%
    06:00 -1°C° 0 mm 2 mps 748 mmHg 93%
    07:00 -1°C° 0 mm 2 mps 749 mmHg 93%
    08:00 -1°C° 0 mm 3 mps 749 mmHg 93%
    09:00 0°C° 0 mm 3 mps 749 mmHg 90%
    10:00 +1°C° 0 mm 3 mps 749 mmHg 88%
    11:00 +2°C° 0 mm 3 mps 750 mmHg 86%
    12:00 +4°C° 0 mm 2 mps 750 mmHg 84%
    13:00 +4°C° 0 mm 2 mps 750 mmHg 83%
    14:00 +5°C° 0 mm 2 mps 750 mmHg 82%
    15:00 +4°C° 0 mm 2 mps 750 mmHg 85%
    16:00 +3°C° 0 mm 2 mps 750 mmHg 87%
    17:00 +2°C° 0 mm 2 mps 750 mmHg 90%
    18:00 +1°C° 0 mm 2 mps 751 mmHg 91%
    19:00 +1°C° 0 mm 2 mps 751 mmHg 92%
    20:00 -1°C° 0 mm 2 mps 751 mmHg 93%
    21:00 -1°C° 0 mm 2 mps 751 mmHg 93%
    22:00 -1°C° 0 mm 2 mps 751 mmHg 93%
    23:00 -1°C° 0 mm 2 mps 752 mmHg 93%

    Tomorrow, 21 February, Friday

    Time Temperature Precipitation Wind Pressure Humidity
    00:00 -2°C° 0 mm 2 mps 752 mmHg 93%
    01:00 -2°C° 0 mm 2 mps 752 mmHg 94%
    02:00 -2°C° 0 mm 2 mps 752 mmHg 94%
    03:00 -2°C° 0 mm 2 mps 752 mmHg 94%
    04:00 -2°C° 0 mm 2 mps 752 mmHg 94%
    05:00 -2°C° 0 mm 2 mps 752 mmHg 94%
    06:00 -2°C° 0 mm 2 mps 752 mmHg 94%
    07:00 -2°C° 0 mm 2 mps 752 mmHg 94%
    08:00 -1°C° 0 mm 2 mps 752 mmHg 94%
    15:00 +3°C° 0 mm 2 mps 752 mmHg 85%
    16:00 +2°C° 0 mm 2 mps 752 mmHg 88%
    17:00 +1°C° 0 mm 2 mps 751 mmHg 91%
    18:00 +1°C° 0 mm 2 mps 752 mmHg 92%
    19:00 +1°C° 0 mm 2 mps 752 mmHg 92%
    20:00 -1°C° 0 mm 2 mps 752 mmHg 93%
    21:00 -1°C° 0 mm 2 mps 753 mmHg 93%
    22:00 -2°C° 0 mm 2 mps 753 mmHg 93%
    23:00 -2°C° 0 mm 2 mps 753 mmHg 93%

    Day after tomorrow, 22 February, Saturday

    Time Temperature Precipitation Wind Pressure Humidity
    00:00 -2°C° 0 mm 2 mps 753 mmHg 93%
    01:00 -2°C° 0 mm 2 mps 753 mmHg 93%
    02:00 -3°C° 0 mm 2 mps 753 mmHg 93%
    03:00 -3°C° 0 mm 2 mps 753 mmHg 93%
    04:00 -3°C° 0 mm 2 mps 753 mmHg 93%
    05:00 -3°C° 0 mm 2 mps 753 mmHg 93%
    06:00 -2°C° 0 mm 2 mps 753 mmHg 91%
    07:00 -2°C° 0 mm 2 mps 754 mmHg 90%
    08:00 -2°C° 0 mm 3 mps 754 mmHg 88%
    09:00 -1°C° 0 mm 3 mps 754 mmHg 82%
    10:00 0°C° 0 mm 3 mps 754 mmHg 77%
    11:00 0°C° 0 mm 4 mps 754 mmHg 72%
    12:00 0°C° 0 mm 4 mps 753 mmHg 71%
    13:00 +1°C° 0 mm 4 mps 753 mmHg 70%
    14:00 +1°C° 0 mm 5 mps 753 mmHg 69%
    15:00 0°C° 0 mm 4 mps 752 mmHg 72%
    16:00 -1°C° 0 mm 4 mps 752 mmHg 76%
    17:00 -2°C° 0 mm 4 mps 751 mmHg 80%
    18:00 -2°C° 0 mm 4 mps 751 mmHg 81%
    19:00 -2°C° 0 mm 5 mps 750 mmHg 81%
    20:00 -4°C° 0 mm 5 mps 750 mmHg 81%
    21:00 -4°C° 0 mm 6 mps 749 mmHg 80%
    22:00 -4°C° 0 mm 6 mps 748 mmHg 80%
    23:00 -4°C° 0 mm 7 mps 747 mmHg 79%

    23 February, Sunday

    Time Temperature Precipitation Wind Pressure Humidity
    00:00 -3°C° 0 mm 7 mps 745 mmHg 79%
    01:00 -4°C° 0 mm 8 mps 744 mmHg 79%
    02:00 -4°C° 0 mm 8 mps 743 mmHg 79%
    03:00 -4°C° 0.3 mm 9 mps 742 mmHg 84%
    04:00 -4°C° 0.3 mm 9 mps 740 mmHg 88%
    05:00 -4°C° 0.3 mm 9 mps 739 mmHg 93%
    06:00 -4°C° 0.8 mm 9 mps 738 mmHg 94%
    07:00 -4°C° 0.8 mm 9 mps 737 mmHg 95%
    08:00 -4°C° 0.8 mm 9 mps 735 mmHg 96%
    09:00 -2°C° 0.4 mm 8 mps 735 mmHg 96%
    10:00 -2°C° 0.4 mm 8 mps 734 mmHg 96%
    11:00 -2°C° 0.4 mm 7 mps 733 mmHg 96%
    12:00 -1°C° 0.5 mm 6 mps 733 mmHg 93%
    13:00 0°C° 0.5 mm 5 mps 733 mmHg 90%
    14:00 +1°C° 0.5 mm 4 mps 733 mmHg 87%
    15:00 0°C° 0.1 mm 4 mps 733 mmHg 87%
    16:00 -1°C° 0.1 mm 4 mps 733 mmHg 86%
    17:00 0°C° 0.1 mm 3 mps 733 mmHg 85%
    18:00 -1°C° 0 mm 3 mps 734 mmHg 86%
    19:00 -2°C° 0 mm 4 mps 734 mmHg 86%
    20:00 -2°C° 0 mm 4 mps 734 mmHg 87%
    21:00 -3°C° 0 mm 4 mps 734 mmHg 87%
    22:00 -3°C° 0 mm 4 mps 734 mmHg 87%
    23:00 -3°C° 0 mm 4 mps 734 mmHg 88%

    24 February, Monday

    Time Temperature Precipitation Wind Pressure Humidity
    00:00 -3°C° 0 mm 4 mps 734 mmHg 88%
    01:00 -3°C° 0 mm 4 mps 734 mmHg 89%
    02:00 -3°C° 0 mm 4 mps 734 mmHg 90%
    03:00 -2°C° 0 mm 3 mps 734 mmHg 91%
    04:00 -2°C° 0 mm 3 mps 734 mmHg 93%
    05:00 -4°C° 0 mm 3 mps 734 mmHg 94%
    06:00 -2°C° 0 mm 3 mps 734 mmHg 93%
    07:00 -3°C° 0 mm 4 mps 734 mmHg 91%
    08:00 -2°C° 0 mm 4 mps 734 mmHg 90%
    09:00 -2°C° 0 mm 4 mps 734 mmHg 87%
    10:00 -1°C° 0 mm 4 mps 735 mmHg 83%
    11:00 -1°C° 0 mm 4 mps 735 mmHg 80%
    12:00 -1°C° 0 mm 4 mps 735 mmHg 79%
    13:00 -1°C° 0 mm 4 mps 735 mmHg 79%
    14:00 -1°C° 0 mm 4 mps 735 mmHg 78%
    15:00 0°C° 0 mm 3 mps 735 mmHg 82%
    16:00 0°C° 0 mm 3 mps 735 mmHg 87%
    17:00 -1°C° 0 mm 2 mps 735 mmHg 91%
    18:00 -1°C° 0.1 mm 2 mps 736 mmHg 93%
    19:00 -1°C° 0.1 mm 2 mps 736 mmHg 95%
    20:00 -1°C° 0.1 mm 2 mps 737 mmHg 97%
    21:00 -1°C° 0.1 mm 3 mps 737 mmHg 96%
    22:00 -1°C° 0.1 mm 3 mps 738 mmHg 95%
    23:00 -1°C° 0.1 mm 3 mps 738 mmHg 94%

    25 February, Tuesday

    Time Temperature Precipitation Wind Pressure Humidity
    00:00 -1°C° 0 mm 3 mps 738 mmHg 94%
    01:00 -2°C° 0 mm 3 mps 739 mmHg 93%
    02:00 -2°C° 0 mm 2 mps 739 mmHg 93%
    03:00 -2°C° 0 mm 3 mps 740 mmHg 93%
    04:00 -4°C° 0 mm 3 mps 740 mmHg 93%
    05:00 -4°C° 0 mm 3 mps 741 mmHg 93%
    06:00 -4°C° 0 mm 3 mps 741 mmHg 92%
    07:00 -4°C° 0 mm 3 mps 742 mmHg 91%
    08:00 -4°C° 0 mm 3 mps 742 mmHg 90%
    09:00 -2°C° 0 mm 3 mps 742 mmHg 88%
    10:00 -2°C° 0 mm 3 mps 743 mmHg 86%
    11:00 -2°C° 0 mm 3 mps 743 mmHg 83%
    12:00 -1°C° 0 mm 3 mps 743 mmHg 82%
    13:00 -1°C° 0 mm 3 mps 743 mmHg 81%
    14:00 -1°C° 0 mm 3 mps 743 mmHg 81%
    15:00 -1°C° 0 mm 3 mps 743 mmHg 82%
    16:00 -1°C° 0 mm 3 mps 743 mmHg 82%
    17:00 -1°C° 0 mm 3 mps 743 mmHg 83%
    18:00 -1°C° 0 mm 3 mps 743 mmHg 82%
    19:00 -1°C° 0 mm 3 mps 743 mmHg 81%
    20:00 -1°C° 0 mm 3 mps 743 mmHg 80%
    21:00 -2°C° 0 mm 3 mps 743 mmHg 83%
    22:00 -3°C° 0 mm 4 mps 742 mmHg 86%
    23:00 -3°C° 0 mm 4 mps 742 mmHg 88%
    Show more